Weather History for Hereford, TX

Change the Weather History Date:

Wednesday, December 5, 2012

  Actual Average (KAMA) Record (KAMA)
Temperature  
Mean Temperature 51 °F 38 °F  
Max Temperature 69 °F 51 °F 74 °F (1987)
Min Temperature 33 °F 25 °F 4 °F (1972)
Degree Days  
Heating Degree Days 14 27  
Month to date heating degree days 130  
Since 1 July heating degree days 974  
Cooling Degree Days 0 0  
Month to date cooling degree days 0  
Year to date cooling degree days 1399  
Growing Degree Days 1 (Base 50)    
Moisture  
Dew Point 24 °F    
Average Humidity 40    
Maximum Humidity 60    
Minimum Humidity 20    
Precipitation  
Precipitation 0.00 in 0.02 in 0.60 in (1936)
Month to date precipitation 0.10  
Year to date precipitation 19.75  
Snow  
Snow 0.00 in 0.10 in 5.00 in (1992)
Month to date snowfall 0.6  
Since 1 July snowfall 3.3  
Snow Depth -    
Sea Level Pressure  
Sea Level Pressure 30.13 in    
Wind  
Wind Speed 11 mph (SSW)    
Max Wind Speed 22 mph    
Max Gust Speed 30 mph    
Visibility 10 miles    
Events      
T = Trace of Precipitation, MM = Missing Value Source: NWS Daily Summary

Daily Weather History Graph

Daily Weather History Graph

Search for Another Location

Airport:

Trip Planner

Search our weather history database for the weather conditions in past years. The results will help you decide how hot, cold, wet, or windy it might be!

Date:

Astronomy

Dec. 05, 2012 Rise Set
Actual Time 7:42 AM CST 5:37 PM CST
Civil Twilight 7:14 AM CST 6:05 PM CST
Nautical Twilight 6:43 AM CST 6:37 PM CST
Astronomical Twilight 6:12 AM CST 7:07 PM CST
Moon No Moon Rise 12:17 PM CST (12/5)
Length of Visible Light 10h 51m
Length of Day
9h 55m
Waning Gibbous, 59% of the Moon is Illuminated
Dec 5
Waning Gibbous
Dec 6
Last Quarter
Dec 13
New
Dec 19
First Quarter
Dec 28
Full

Hourly Weather History & Observations

Time (CST) Temp. Windchill Dew Point Humidity Pressure Visibility Wind Dir Wind Speed Gust Speed Precip Events Conditions
12:15 AM 35.6 °F 28.0 °F 17.6 °F 48% 30.32 in 10.0 mi South 10.4 mph - N/A   Clear
12:35 AM 35.6 °F 29.2 °F 17.6 °F 48% 30.32 in 10.0 mi SSW 8.1 mph - N/A   Clear
12:55 AM 35.6 °F 29.2 °F 17.6 °F 48% 30.31 in 10.0 mi SSW 8.1 mph - N/A   Clear
1:15 AM 37.4 °F 30.8 °F 17.6 °F 45% 30.31 in 10.0 mi SW 9.2 mph 16.1 mph N/A   Clear
1:55 AM 35.6 °F 30.7 °F 17.6 °F 48% 30.31 in 10.0 mi SSW 5.8 mph - N/A   Clear
2:15 AM 35.6 °F 29.9 °F 17.6 °F 48% 30.30 in 10.0 mi SSW 6.9 mph - N/A   Clear
2:35 AM 33.8 °F 27.0 °F 17.6 °F 52% 30.30 in 10.0 mi SSW 8.1 mph - N/A   Clear
2:55 AM 33.8 °F 27.7 °F 17.6 °F 52% 30.30 in 10.0 mi SSW 6.9 mph - N/A   Clear
3:15 AM 35.6 °F 29.9 °F 17.6 °F 48% 30.31 in 10.0 mi SSW 6.9 mph - N/A   Clear
3:35 AM 33.8 °F 27.0 °F 19.4 °F 56% 30.29 in 10.0 mi SSW 8.1 mph - N/A   Clear
3:55 AM 33.8 °F 27.0 °F 19.4 °F 56% 30.29 in 10.0 mi SSW 8.1 mph - N/A   Clear
4:15 AM 33.8 °F 27.7 °F 19.4 °F 56% 30.29 in 10.0 mi SSW 6.9 mph - N/A   Clear
4:35 AM 35.6 °F 30.7 °F 19.4 °F 52% 30.28 in 10.0 mi SSW 5.8 mph - N/A   Clear
4:55 AM 35.6 °F 30.7 °F 21.2 °F 56% 30.27 in 10.0 mi SSW 5.8 mph - N/A   Clear
5:15 AM 33.8 °F 27.0 °F 21.2 °F 60% 30.27 in 10.0 mi SSW 8.1 mph - N/A   Clear
5:35 AM 35.6 °F 30.7 °F 19.4 °F 52% 30.26 in 10.0 mi SSW 5.8 mph - N/A   Clear
5:55 AM 33.8 °F 27.0 °F 19.4 °F 56% 30.26 in 10.0 mi SW 8.1 mph - N/A   Clear
6:15 AM 35.6 °F 29.2 °F 19.4 °F 52% 30.26 in 10.0 mi SSW 8.1 mph - N/A   Clear
6:35 AM 35.6 °F 29.9 °F 19.4 °F 52% 30.26 in 10.0 mi SSW 6.9 mph - N/A   Clear
6:55 AM 35.6 °F 29.9 °F 19.4 °F 52% 30.25 in 10.0 mi SSW 6.9 mph - N/A   Clear
8:35 AM 37.4 °F - 21.2 °F 52% 30.27 in 10.0 mi North - - N/A   Clear
8:55 AM 41.0 °F 33.9 °F 21.2 °F 45% 30.26 in 10.0 mi SW 12.7 mph - N/A   Clear
9:15 AM 44.6 °F 38.1 °F 19.4 °F 37% 30.26 in 10.0 mi SSW 13.8 mph 20.7 mph N/A   Clear
9:35 AM 46.4 °F 39.5 °F 21.2 °F 37% 30.24 in 10.0 mi SSW 17.3 mph 24.2 mph N/A   Clear
9:55 AM 50.0 °F - 19.4 °F 30% 30.24 in 10.0 mi SSW 20.7 mph 28.8 mph N/A   Clear
10:15 AM 50.0 °F - 21.2 °F 32% 30.23 in 10.0 mi SSW 19.6 mph 25.3 mph N/A   Clear
10:35 AM 50.0 °F - 21.2 °F 32% 30.22 in 10.0 mi SSW 21.9 mph - N/A   Clear
10:55 AM 50.0 °F - 21.2 °F 32% 30.22 in 10.0 mi South 18.4 mph 26.5 mph N/A   Clear
11:15 AM 51.8 °F - 23.0 °F 33% 30.21 in 10.0 mi SSW 20.7 mph 26.5 mph N/A   Clear
11:35 AM 53.6 °F - 23.0 °F 30% 30.19 in 10.0 mi SSW 18.4 mph - N/A   Clear
11:55 AM 55.4 °F - 24.8 °F 31% 30.18 in 10.0 mi South 15.0 mph 25.3 mph N/A   Clear
12:15 PM 59.0 °F - 26.6 °F 29% 30.16 in 10.0 mi SSW 19.6 mph 29.9 mph N/A   Clear
12:35 PM 59.0 °F - 26.6 °F 29% 30.14 in 10.0 mi SSW 17.3 mph 27.6 mph N/A   Clear
12:55 PM 59.0 °F - 28.4 °F 31% 30.12 in 10.0 mi SW 13.8 mph 26.5 mph N/A   Clear
1:15 PM 60.8 °F - 28.4 °F 29% 30.10 in 10.0 mi SSW 19.6 mph 25.3 mph N/A   Clear
1:35 PM 62.6 °F - 28.4 °F 27% 30.09 in 10.0 mi SW 21.9 mph 28.8 mph N/A   Clear
1:55 PM 62.6 °F - 28.4 °F 27% 30.07 in 10.0 mi SW 19.6 mph 26.5 mph N/A   Clear
2:15 PM 64.4 °F - 30.2 °F 28% 30.05 in 10.0 mi SSW 18.4 mph 28.8 mph N/A   Clear
2:35 PM 66.2 °F - 28.4 °F 24% 30.04 in 10.0 mi SW 16.1 mph 23.0 mph N/A   Clear
2:55 PM 68.0 °F - 26.6 °F 21% 30.03 in 10.0 mi SW 16.1 mph 27.6 mph N/A   Clear
3:15 PM 68.0 °F - 28.4 °F 23% 30.02 in 10.0 mi SW 18.4 mph 25.3 mph N/A   Clear
3:35 PM 68.0 °F - 28.4 °F 23% 30.02 in 10.0 mi SW 16.1 mph 26.5 mph N/A   Clear
3:55 PM 69.8 °F - 26.6 °F 20% 30.00 in 10.0 mi WSW 20.7 mph 25.3 mph N/A   Clear
4:15 PM 68.0 °F - 26.6 °F 21% 30.00 in 10.0 mi SW 16.1 mph 24.2 mph N/A   Clear
4:35 PM 68.0 °F - 26.6 °F 21% 29.99 in 10.0 mi SW 17.3 mph - N/A   Clear
4:55 PM 68.0 °F - 26.6 °F 21% 29.99 in 10.0 mi SW 10.4 mph 16.1 mph N/A   Clear
5:15 PM 64.4 °F - 26.6 °F 24% 29.98 in 10.0 mi SW 10.4 mph - N/A   Clear
5:35 PM 60.8 °F - 26.6 °F 27% 29.98 in 7.0 mi SSW 8.1 mph - N/A   Clear
6:15 PM 51.8 °F - 28.4 °F 41% 29.98 in 10.0 mi South 10.4 mph - N/A   Clear
6:35 PM 51.8 °F - 28.4 °F 41% 29.98 in 10.0 mi South 11.5 mph - N/A   Clear
6:55 PM 51.8 °F - 30.2 °F 44% 29.97 in 10.0 mi South 11.5 mph - N/A   Clear
7:15 PM 51.8 °F - 30.2 °F 44% 29.96 in 10.0 mi South 12.7 mph - N/A   Clear
7:35 PM 50.0 °F - 28.4 °F 43% 29.97 in 10.0 mi SSW 11.5 mph - N/A   Clear
7:55 PM 50.0 °F - 28.4 °F 43% 29.97 in 10.0 mi SSW 11.5 mph - N/A   Clear
8:15 PM 51.8 °F - 30.2 °F 44% 29.97 in 10.0 mi South 12.7 mph - N/A   Clear
8:35 PM 50.0 °F - 30.2 °F 47% 29.96 in 10.0 mi SSW 12.7 mph - N/A   Clear
8:55 PM 48.2 °F - 30.2 °F 50% 29.95 in 10.0 mi SSW 10.4 mph - N/A   Clear
9:15 PM 50.0 °F - 30.2 °F 47% 29.95 in 10.0 mi SSW 11.5 mph - N/A   Clear
9:35 PM 50.0 °F - 30.2 °F 47% 29.94 in 10.0 mi SW 16.1 mph - N/A   Clear
9:55 PM 50.0 °F - 28.4 °F 43% 29.93 in 10.0 mi SSW 13.8 mph 20.7 mph N/A   Clear
10:15 PM 48.2 °F - 28.4 °F 46% 29.93 in 10.0 mi SSW 10.4 mph - N/A   Clear
10:35 PM 51.8 °F - 28.4 °F 41% 29.92 in 10.0 mi SW 18.4 mph 25.3 mph N/A   Clear
10:55 PM 50.0 °F - 28.4 °F 43% 29.93 in 10.0 mi WSW 15.0 mph 19.6 mph N/A   Clear
11:15 PM 51.8 °F - 28.4 °F 41% 29.92 in 10.0 mi SW 16.1 mph 21.9 mph N/A   Clear
11:35 PM 48.2 °F - 28.4 °F 46% 29.91 in 10.0 mi SSW 11.5 mph 17.3 mph N/A   Clear